Location: Rochester
(43.1610°N, 77.6109°W)
Time: 02:46:25
(UTC-05:00)

CAS-4A - Pass Details

Date: 24 October 2021
Orbit: 529 x 539 km, 43.0° (Epoch: 30 November)

Event Time Altitude Azimuth Distance (km) Brightness Sun altitude
Rises 20:53:09 0° 276° (W) 2,686 ? -29.8°
Reaches altitude 10° 20:56:04 10° 255° (WSW) 1,790 ? -30.3°
Enters shadow 20:57:42 15° 232° (SW) 1,486 ? -30.6°
